Theta_e
338 338 336 336 336 337 335 338 339 339 337 337 336 333 331 333 333 332 331 331 332 333 334 335 334 335 334 335 335 334 333 332 332 332 332 332 333 335 335 335 336 337 338
337 338 336 336 336 335 334 339 339 339 335 336 333 334 332 332 332 331 331 330 328 330 332 332 335 334 337 334 334 334 330 329 328 328 330 330 329 331 331 332 333 335 336
337 337 337 335 333 332 334 339 339 340 337 335 335 333 332 331 331 330 329 328 327 328 329 331 333 332 334 336 334 330 328 326 324 324 324 326 327 327 328 329 330 331 332
337 337 335 331 331 334 337 336 338 339 337 336 334 333 331 329 327 325 323 322 324 324 325 328 330 329 331 329 328 326 325 323 317 315 320 325 326 327 326 327 327 327 325
338 337 335 333 334 335 337 337 338 338 336 332 332 331 328 326 324 321 319 317 319 319 321 324 326 329 328 327 326 324 322 316 313 317 321 322 324 325 325 325 325 325 325
338 337 335 334 334 334 335 335 337 337 336 331 331 329 327 326 325 323 322 316 313 316 317 320 322 322 323 320 316 313 312 312 315 320 322 323 323 324 324 324 324 323 323
338 337 335 334 333 333 333 334 335 336 336 334 334 330 327 326 325 324 322 320 310 307 310 313 314 314 314 312 310 308 306 308 312 318 322 323 324 324 324 324 324 324 323
338 338 336 335 333 333 334 334 334 335 335 335 332 329 328 327 325 324 322 321 317 308 306 308 307 307 307 307 305 302 303 308 313 318 320 322 324 324 323 323 323 322 322
338 338 339 337 335 334 334 334 333 333 333 333 333 331 329 327 325 324 322 321 320 318 310 306 304 305 304 303 302 301 302 306 312 316 317 319 321 324 326 326 325 324 322
339 339 339 338 337 336 334 335 334 333 332 332 334 331 329 327 325 324 323 322 321 320 317 312 306 303 302 302 302 301 301 302 308 313 316 318 319 319 319 320 321 322 324
340 340 340 339 338 338 336 335 335 334 333 332 332 333 330 328 327 324 323 322 321 319 318 316 314 309 308 308 306 309 309 308 312 317 319 319 319 319 318 317 318 318 318
339 337 339 337 335 337 337 336 337 335 333 332 332 332 331 329 328 326 323 322 322 321 319 317 316 315 315 314 312 311 309 310 313 316 317 318 320 320 319 319 319 319 317
333 334 335 335 334 336 337 338 337 336 334 332 332 333 332 330 329 327 325 323 322 321 319 317 316 316 316 315 313 311 309 310 311 313 314 314 314 316 316 317 316 316 316
331 332 332 333 334 333 334 335 334 337 335 333 333 333 333 331 330 328 326 324 323 322 319 317 317 316 317 315 312 309 308 309 309 309 307 306 308 312 313 313 313 313 313
324 326 328 328 330 332 334 333 331 332 336 333 333 333 332 332 331 329 327 326 324 323 321 320 319 318 317 314 310 308 307 305 305 305 303 301 302 306 307 307 308 309 310
314 315 315 314 316 323 329 332 331 331 335 335 332 332 332 332 331 330 327 326 325 324 321 320 319 318 315 311 308 307 304 301 299 297 295 294 294 298 301 301 303 305 306
310 310 310 310 311 312 314 324 329 330 334 334 335 334 333 333 332 329 327 326 324 322 321 319 318 316 313 308 305 302 299 297 295 293 291 290 290 290 291 297 299 301 303
309 309 309 310 311 312 314 320 328 329 330 333 334 333 333 332 332 329 327 325 323 321 320 317 315 312 309 305 302 297 295 293 291 290 289 289 288 288 288 288 293 298 299
308 308 309 310 312 314 318 320 327 327 330 331 332 332 332 331 329 328 325 323 321 319 317 315 312 311 305 300 296 293 291 290 288 288 287 287 287 287 287 287 287 289 292
307 307 309 311 313 315 318 320 325 327 328 327 329 330 330 329 327 324 323 321 319 317 314 310 309 305 302 297 292 289 288 287 287 287 286 286 286 286 286 286 285 285 285
305 307 309 312 314 314 316 317 321 323 324 325 325 326 326 326 322 322 321 318 316 315 311 308 305 303 297 295 293 288 286 286 286 286 286 286 285 285 285 284 284 284 284
305 307 309 311 312 313 315 315 319 320 318 321 320 321 322 322 321 320 317 314 311 304 304 307 305 300 296 297 294 294 292 292 287 285 285 285 285 284 284 284 284 284 284
304 306 309 310 311 312 314 314 316 315 313 313 313 314 315 318 317 316 315 312 303 300 304 305 304 304 298 299 299 300 293 296 291 290 285 284 284 284 284 284 283 283 283
304 305 308 311 310 312 313 313 315 314 307 310 312 312 312 313 312 312 310 305 296 298 303 303 303 302 302 296 294 291 290 290 285 284 285 284 284 284 284 283 283 283 283
303 305 308 310 310 310 312 313 312 310 310 311 308 308 308 307 307 307 305 298 294 293 293 293 293 291 292 292 290 287 287 287 286 285 283 284 284 283 283 283 283 282 282
303 305 307 309 309 309 311 310 309 309 308 305 302 302 301 302 302 301 294 292 292 292 292 292 291 291 290 290 289 288 287 286 284 284 282 282 282 283 283 283 282 282 282
Wind_Speed
14 15 13 14 14 13 13 15 16 16 16 17 18 19 20 18 17 17 18 18 19 19 19 19 19 19 19 20 21 21 22 24 24 24 24 23 23 21 21 22 23 25 26
20 18 16 15 16 15 15 17 16 14 16 16 18 19 19 17 17 17 18 18 18 18 18 18 20 20 21 22 22 21 21 22 22 23 25 26 24 23 23 21 19 22 22
20 18 17 16 16 16 16 16 16 14 15 17 16 17 17 17 18 18 18 18 18 18 17 18 18 20 21 21 21 20 20 20 19 19 20 22 22 22 22 23 24 24 23
20 19 18 17 17 17 16 14 14 13 14 15 16 17 17 18 17 18 17 18 17 17 17 18 18 18 19 19 18 19 19 19 19 20 22 23 24 21 21 21 22 22 21
20 19 18 18 16 15 14 15 15 14 12 13 15 16 16 17 17 18 17 18 17 18 18 18 19 18 18 17 17 16 17 18 20 22 24 24 24 21 21 22 23 23 23
20 18 18 16 15 14 13 14 14 14 11 11 13 15 16 16 17 17 18 18 18 18 18 18 18 18 17 16 17 18 19 19 20 23 25 24 24 22 22 22 22 23 24
18 17 17 16 14 12 12 12 12 12 12 11 13 14 15 16 17 17 17 17 18 18 18 18 18 18 16 17 17 18 18 19 20 22 24 25 23 22 22 22 22 23 23
18 18 16 15 14 13 13 13 13 13 13 11 10 12 13 15 16 18 18 17 18 17 18 18 18 18 18 17 18 19 20 20 22 25 26 25 22 22 23 23 23 23 23
18 19 18 15 15 13 13 12 11 11 11 11 10 12 13 14 15 16 17 17 17 17 18 18 18 18 18 18 19 20 20 21 23 26 27 26 24 22 23 23 22 23 23
18 20 20 18 16 14 14 12 11 11 11 12 12 12 13 14 14 15 16 16 17 17 17 17 17 18 19 19 19 20 21 22 24 27 28 25 25 24 22 21 23 25 26
18 19 19 17 14 13 13 12 12 12 11 11 13 13 14 13 9 13 14 14 14 15 15 16 17 17 18 19 20 20 22 24 26 30 28 24 24 23 24 25 24 24 24
20 20 18 16 16 17 15 15 14 14 13 11 11 15 15 15 11 12 12 11 11 11 13 15 15 16 17 18 19 19 22 23 25 29 27 25 25 25 25 25 26 25 25
20 20 19 18 18 17 17 17 16 17 18 15 14 16 17 16 14 13 11 10 9 8 11 12 14 16 16 16 18 20 21 22 25 28 27 25 25 25 25 25 25 25 25
21 20 21 20 20 20 20 19 17 18 19 19 18 18 19 19 17 15 13 11 9 9 10 11 13 15 16 17 18 20 21 22 24 27 27 27 28 26 26 27 27 27 27
22 21 20 20 20 21 21 21 20 20 22 20 19 18 19 22 21 19 16 14 12 10 8 10 11 14 17 18 19 20 22 22 22 23 24 23 28 27 27 27 27 27 27
21 21 19 19 19 21 23 24 23 21 23 23 22 20 19 22 23 19 20 16 14 11 10 10 12 15 17 19 21 21 22 23 22 23 23 24 25 26 27 27 26 27 27
22 19 19 18 17 18 20 22 23 21 21 21 22 23 21 23 24 21 20 17 15 12 12 13 14 16 19 21 25 23 23 23 23 23 24 24 23 23 24 26 27 26 26
22 21 18 16 16 17 18 20 23 22 22 22 23 22 21 21 24 24 21 18 15 15 15 15 17 21 24 26 26 25 25 23 23 23 23 23 24 24 24 24 25 27 26
23 21 19 18 16 15 18 19 22 22 22 22 22 23 23 24 23 24 21 17 16 15 15 16 21 24 30 30 29 26 24 23 22 22 23 23 23 23 24 24 23 24 26
24 22 20 19 18 18 20 22 22 22 23 25 23 24 25 26 26 26 21 18 17 17 18 21 26 29 32 33 31 28 24 23 22 22 22 21 22 22 22 23 24 26 26
26 25 24 23 22 23 25 25 25 24 22 20 21 21 23 25 23 20 19 19 18 21 25 27 30 33 33 32 27 24 21 19 19 20 19 19 20 21 21 23 25 26 27
32 29 27 27 27 27 28 29 26 26 22 22 23 22 19 19 19 20 22 24 24 25 28 32 34 35 32 22 10 9 3 3 10 17 16 17 17 17 19 20 22 24 26
36 35 33 31 29 29 31 30 23 26 23 22 22 23 22 20 21 22 25 26 25 25 30 32 31 33 26 14 19 6 3 3 5 5 12 13 12 13 15 15 18 22 24
44 39 36 34 32 32 33 33 33 34 26 25 29 26 25 23 23 24 25 26 27 27 30 28 27 21 23 22 15 7 7 9 3 2 5 8 11 12 12 11 14 18 22
33 40 37 34 34 34 35 37 35 33 31 31 31 28 26 25 24 26 27 28 28 27 27 26 24 22 21 22 16 17 14 12 7 3 2 2 4 7 6 7 9 12 19
32 36 37 36 36 36 36 36 35 35 34 34 32 31 29 28 28 29 29 29 29 28 27 25 22 20 18 17 18 16 14 6 8 5 3 2 1 1 1 3 4 9 15
Wind_Direction
152 150 150 154 150 143 135 128 114 106 95 91 87 84 80 77 78 78 75 75 76 76 75 76 77 73 66 69 77 74 68 67 66 66 62 59 57 54 55 60 59 52 51
149 150 150 150 149 144 142 131 121 113 101 92 86 82 82 82 81 79 76 72 74 75 76 74 74 73 75 81 78 75 72 68 65 64 66 59 52 53 50 53 55 51 51
152 153 156 156 152 147 140 134 126 113 98 94 93 93 89 88 85 79 78 77 74 76 77 79 78 77 81 81 79 75 69 64 61 63 67 69 59 51 51 49 47 44 47
158 158 158 158 151 145 142 134 122 116 106 105 100 93 88 85 83 80 78 79 79 79 81 83 83 84 87 87 83 76 68 63 62 66 69 70 66 56 54 53 51 49 48
161 161 159 157 153 146 144 136 134 130 119 109 106 99 93 87 83 81 79 77 78 77 79 82 83 87 88 85 79 71 67 65 68 69 67 62 62 56 54 51 50 48 48
163 163 161 160 158 154 148 143 145 141 134 116 107 101 97 92 84 77 75 75 77 80 81 84 85 87 87 81 76 73 75 76 74 71 68 64 61 57 55 54 52 49 47
167 167 167 165 166 160 155 153 153 148 146 133 128 116 102 93 84 78 75 77 78 78 82 85 87 86 87 82 79 77 76 78 76 74 71 65 60 59 57 55 53 51 49
173 172 173 173 174 168 165 163 161 161 156 148 134 119 108 99 89 79 73 75 78 80 82 84 86 87 86 87 86 84 83 82 80 76 69 63 60 57 54 52 51 49 48
177 175 177 178 179 178 173 169 167 163 158 156 149 134 125 114 101 88 79 77 78 82 85 85 87 88 89 87 85 83 82 81 80 77 69 63 60 57 55 53 52 49 48
181 183 182 180 181 183 180 178 175 172 167 167 164 151 140 127 113 103 91 86 80 84 85 87 89 90 88 86 84 81 80 82 81 77 69 63 60 57 54 49 46 46 47
180 185 182 182 185 190 192 194 187 183 178 176 174 166 155 143 141 127 117 109 100 95 93 93 91 90 90 88 86 83 80 80 81 76 68 64 60 58 55 54 50 47 44
181 187 192 189 207 200 199 203 201 190 193 197 194 181 169 168 164 151 140 131 119 114 105 100 95 94 90 88 86 83 80 81 81 79 69 65 61 59 57 55 52 50 48
187 187 206 197 205 205 203 204 213 199 196 198 204 191 181 178 180 169 158 146 136 121 113 106 105 99 95 91 88 84 86 85 85 82 77 70 59 57 55 53 51 47 45
196 197 202 210 205 210 213 212 214 214 205 201 202 192 194 187 187 178 173 158 152 138 128 113 103 98 95 91 90 92 88 86 87 88 81 73 63 60 57 54 51 48 45
208 208 208 212 213 215 214 214 217 216 210 209 203 201 203 196 189 184 178 169 159 148 135 124 110 105 99 97 96 94 91 88 87 85 82 70 64 61 58 55 51 49 48
212 214 216 220 220 220 220 219 219 218 212 210 210 212 209 206 196 191 180 172 159 155 148 133 124 117 109 108 105 99 95 90 86 81 74 69 65 60 56 52 50 49 47
217 218 221 225 227 224 221 218 212 219 214 214 212 213 213 207 198 190 181 171 160 160 158 145 132 126 120 117 109 105 99 94 88 81 75 69 63 61 56 52 50 49 47
222 223 225 227 227 223 214 214 211 213 213 210 206 208 205 207 199 189 181 174 165 161 159 149 142 132 126 121 115 107 99 94 87 79 75 70 65 59 55 51 51 51 47
223 222 223 223 224 209 203 208 202 207 205 198 202 199 198 195 192 191 181 173 169 166 163 162 150 144 133 123 115 107 99 92 85 78 71 67 63 59 56 55 53 53 48
221 221 220 216 213 203 198 200 190 190 189 189 182 187 184 190 194 186 174 176 175 173 171 160 149 142 135 128 116 103 96 90 83 75 72 67 61 59 59 57 53 49 46
219 217 213 207 202 199 195 191 188 185 185 186 184 185 189 191 181 182 183 182 178 178 168 160 147 142 133 130 115 102 93 89 84 77 73 68 64 61 60 56 51 47 43
217 215 211 209 204 201 203 196 188 185 182 182 179 177 181 191 193 198 186 173 171 167 163 160 155 143 142 147 140 124 145 133 87 73 72 70 70 67 64 58 50 45 40
216 214 211 206 205 202 204 198 187 180 175 176 178 178 175 185 185 180 175 172 168 167 162 163 162 157 158 160 162 138 113 184 139 131 75 82 76 68 65 57 47 41 35
216 215 212 206 201 204 205 201 194 187 172 184 181 178 175 178 181 179 177 172 166 162 162 161 163 172 171 150 142 138 146 142 152 156 166 82 67 58 54 49 40 34 27
207 210 209 205 200 205 204 206 199 192 189 185 179 177 175 176 183 182 179 175 171 167 163 163 164 164 158 152 157 138 118 111 116 124 141 65 96 54 41 35 29 22 19
207 206 205 203 203 204 206 204 201 197 189 181 178 175 173 174 177 177 175 171 167 163 160 159 159 159 157 151 151 155 154 157 153 137 123 162 300 142 40 356 355 3 5